Regional Weather Roundup
Issued by NWS

Home | Current Version | Previous Version | Graphics & Text | Print | Product List | Glossary Off
Versions: 1 2 3 4 5 6 7 8 9 10 11 12 13 14 15 16 17 18 19 20 21 22 23 24 25 26 27 28 29 30 31 32 33 34 35 36 37 38 39 40 41 42 43 44 45 46 47 48 49 50

000
ASUS43 KTOP 202059
RWRKS

WEATHER ROUNDUP FOR KANSAS
NATIONAL WEATHER SERVICE GOODLAND KS
400 PM CDT THU JUL 20 2017

NOTE:  "FAIR" INDICATES FEW OR NO CLOUDS BELOW 12,000 FEET WITH NO
SIGNIFICANT WEATHER AND/OR OBSTRUCTIONS TO VISIBILITY.

KSZ001>006-013>018-027>032-041>047-202200-
NORTHWEST KANSAS

CITY           SKY/WX    TMP DP  RH WIND       PRES   REMARKS
GOODLAND       SUNNY     94  61  33 S9        30.01F
HAYS           MOSUNNY  103  58  22 SW16G25   29.95F HX 102
HILL CITY      SUNNY    103  56  21 S16G24    29.94F HX 102
RUSSELL        MOSUNNY  103  59  23 S17G24    29.93F HX 103
$$

KSZ061>065-074>080-084>089-202200-
SOUTHWEST KANSAS

CITY           SKY/WX    TMP DP  RH WIND       PRES   REMARKS
DODGE CITY     SUNNY    101  53  20 S13G25    30.00F HX  99
ELKHART          N/A     97  52  22 S9          N/A
GARDEN CITY    SUNNY     99  59  26 S20G29    30.00F HX  99
LIBERAL        SUNNY     99  58  25 S21G31    30.02F HX  98
$$

KSZ066>073-081>083-090>101-202200-
SOUTHEAST KANSAS

CITY           SKY/WX    TMP DP  RH WIND       PRES   REMARKS
CHANUTE        SUNNY     99  71  40 S13G25    30.01F HX 107
COFFEYVILLE    SUNNY     97  73  45 S8        30.00F HX 107
HUTCHINSON     SUNNY    105  61  23 SW14      29.96F HX 106
MEDICINE LODGE   N/A    102  59  24 SW14G22   29.96F HX 102
NEWTON         SUNNY    103  64  28 SW17G23   29.98  HX 106
PARSONS        SUNNY     96  72  45 S9        30.02F HX 104
WICHITA INTL   MOSUNNY  102  64  28 S13       29.96F HX 105
WICHITA JABRA  MOSUNNY  102  64  28 S14       29.98F HX 105
WICHITA MCCONL SUNNY    101  62  28 SW13      29.98F HX 103
WINFIELD       MOSUNNY  100  66  32 S13       29.99F HX 104
$$

KSZ007>012-019>026-033>040-048>060-102>105-202200-
NORTHEAST KANSAS

CITY           SKY/WX    TMP DP  RH WIND       PRES   REMARKS
CONCORDIA      MOSUNNY  102  64  28 S16       29.93F HX 105
EMPORIA        MOSUNNY   99  67  35 S12G22    29.98F HX 103
LAWRENCE       SUNNY     99  74  44 S14G20    29.97F HX 110
MANHATTAN      MOSUNNY  104  69  32 SW15G22   29.94F HX 111
OLATHE IND     SUNNY     96  74  48 S14       30.01S HX 107
OLATHE EXE     SUNNY     93  77  59 S10       30.01F HX 107
SALINA         PTSUNNY  103  62  26 S15G25    29.94F HX 105
TOPEKA BILLARD SUNNY     99  74  44 S12       29.96F HX 110
TOPEKA FORBES  SUNNY    100  74  43 S10       29.98F HX 112
$$



USA.gov is the U.S. government's official web portal to all federal, state and local government web resources and services.